TimeCDT,TemperatureF,Dew PointF,Humidity,Sea Level PressureIn,VisibilityMPH,Wind Direction,Wind SpeedMPH,Gust SpeedMPH,PrecipitationIn,Events,Conditions,WindDirDegrees,DateUTC
12:15 AM,49.6,31.8,50,30.33,10.0,East,5.8,-,N/A,,Clear,100,2013-10-14 05:15:00
12:35 AM,48.6,32.0,53,30.32,10.0,East,5.8,-,N/A,,Clear,80,2013-10-14 05:35:00
12:55 AM,47.3,32.0,55,30.32,10.0,East,5.8,-,N/A,,Clear,100,2013-10-14 05:55:00
1:15 AM,46.8,32.0,57,30.32,10.0,East,4.6,-,N/A,,Clear,80,2013-10-14 06:15:00
1:35 AM,48.6,31.8,52,30.33,10.0,East,4.6,-,N/A,,Clear,90,2013-10-14 06:35:00
1:55 AM,49.1,32.4,53,30.33,10.0,Calm,Calm,-,N/A,,Clear,0,2013-10-14 06:55:00
2:15 AM,46.9,34.7,62,30.33,10.0,Calm,Calm,-,N/A,,Scattered Clouds,0,2013-10-14 07:15:00
2:35 AM,47.3,33.8,59,30.33,10.0,East,3.5,-,N/A,,Clear,80,2013-10-14 07:35:00
2:55 AM,49.1,33.1,54,30.31,10.0,East,6.9,-,N/A,,Scattered Clouds,100,2013-10-14 07:55:00
3:15 AM,49.8,33.1,53,30.30,10.0,East,6.9,-,N/A,,Mostly Cloudy,100,2013-10-14 08:15:00
3:35 AM,50.9,32.9,50,30.29,10.0,East,4.6,-,N/A,,Mostly Cloudy,100,2013-10-14 08:35:00
3:55 AM,51.6,32.7,49,30.30,10.0,SSE,3.5,-,N/A,,Overcast,150,2013-10-14 08:55:00
4:15 AM,52.2,32.0,46,30.28,10.0,East,5.8,-,N/A,,Overcast,90,2013-10-14 09:15:00
4:35 AM,52.3,31.6,45,30.27,10.0,East,6.9,-,N/A,,Overcast,100,2013-10-14 09:35:00
4:55 AM,52.7,31.1,44,30.26,10.0,ESE,3.5,-,N/A,,Overcast,120,2013-10-14 09:55:00
5:15 AM,52.9,30.9,43,30.26,10.0,ESE,4.6,-,N/A,,Overcast,110,2013-10-14 10:15:00
5:35 AM,52.3,31.1,44,30.23,10.0,ESE,9.2,-,N/A,,Overcast,110,2013-10-14 10:35:00
5:55 AM,52.3,30.9,44,30.23,10.0,ESE,8.1,-,N/A,,Mostly Cloudy,110,2013-10-14 10:55:00
6:15 AM,52.7,30.4,42,30.25,10.0,East,4.6,-,N/A,,Overcast,100,2013-10-14 11:15:00
6:35 AM,52.7,30.4,42,30.26,10.0,East,4.6,-,N/A,,Overcast,100,2013-10-14 11:35:00
6:55 AM,52.3,30.2,43,30.23,10.0,ESE,8.1,-,N/A,,Overcast,110,2013-10-14 11:55:00
7:15 AM,52.0,30.2,43,30.24,10.0,SE,8.1,-,N/A,,Overcast,130,2013-10-14 12:15:00
7:35 AM,51.8,30.6,44,30.25,10.0,SE,6.9,-,N/A,,Overcast,140,2013-10-14 12:35:00
7:55 AM,51.3,31.8,47,30.27,10.0,SSE,3.5,-,N/A,,Overcast,160,2013-10-14 12:55:00
8:15 AM,50.9,31.6,48,30.25,10.0,East,3.5,-,N/A,,Overcast,80,2013-10-14 13:15:00
8:35 AM,50.9,32.0,48,30.24,10.0,East,4.6,-,N/A,,Light Drizzle,100,2013-10-14 13:35:00
8:55 AM,50.9,32.4,49,30.23,10.0,ESE,4.6,-,N/A,,Light Drizzle,120,2013-10-14 13:55:00
9:15 AM,50.9,32.9,50,30.23,10.0,SE,4.6,-,N/A,Rain,Light Rain,130,2013-10-14 14:15:00
9:35 AM,50.0,35.8,58,30.23,10.0,ESE,5.8,-,N/A,Rain,Rain,110,2013-10-14 14:35:00
9:55 AM,49.3,37.4,64,30.23,7.0,Calm,Calm,-,0.01,Rain,Rain,0,2013-10-14 14:55:00
10:15 AM,49.1,38.5,67,30.22,10.0,ESE,4.6,-,0.01,Rain,Light Rain,120,2013-10-14 15:15:00
10:35 AM,48.4,38.8,70,30.20,5.0,ESE,6.9,-,0.03,Rain,Rain,120,2013-10-14 15:35:00
10:55 AM,47.7,40.3,76,30.18,7.0,East,5.8,-,0.06,Rain,Rain,100,2013-10-14 15:55:00
11:15 AM,48.2,41.0,76,30.16,10.0,ESE,5.8,-,N/A,Rain,Light Rain,110,2013-10-14 16:15:00
11:35 AM,48.4,41.5,77,30.14,10.0,East,3.5,-,0.02,Rain,Rain,90,2013-10-14 16:35:00
11:55 AM,49.1,42.4,78,30.12,10.0,ENE,4.6,-,0.02,,Overcast,70,2013-10-14 16:55:00
12:15 PM,50.0,42.3,75,30.14,10.0,West,4.6,-,N/A,,Light Drizzle,280,2013-10-14 17:15:00
12:35 PM,49.1,44.2,83,30.13,10.0,NNE,3.5,-,N/A,,Overcast,20,2013-10-14 17:35:00
12:55 PM,49.3,44.8,84,30.12,10.0,North,3.5,-,N/A,Rain,Light Rain,360,2013-10-14 17:55:00
1:15 PM,49.3,44.6,84,30.08,10.0,ENE,8.1,-,N/A,Rain,Light Rain,60,2013-10-14 18:15:00
1:35 PM,51.6,45.7,80,30.04,10.0,ESE,6.9,-,0.01,Rain,Light Rain,110,2013-10-14 18:35:00
1:55 PM,54.3,42.8,65,30.01,10.0,SE,15.0,19.6,0.01,Rain,Light Rain,130,2013-10-14 18:55:00
2:15 PM,54.7,43.0,65,30.00,10.0,SE,10.4,20.7,N/A,Rain,Light Rain,140,2013-10-14 19:15:00
2:35 PM,55.0,43.0,64,29.99,10.0,SE,12.7,16.1,N/A,,Overcast,130,2013-10-14 19:35:00
2:55 PM,55.9,42.6,61,29.98,10.0,SE,12.7,17.3,N/A,,Overcast,130,2013-10-14 19:55:00
3:15 PM,54.7,43.7,66,29.96,10.0,SE,12.7,20.7,N/A,Rain,Light Rain,140,2013-10-14 20:15:00
3:35 PM,54.5,44.2,68,29.97,10.0,SE,10.4,-,N/A,,Overcast,130,2013-10-14 20:35:00
3:55 PM,54.0,45.1,72,29.94,10.0,ESE,11.5,16.1,N/A,Rain,Rain,120,2013-10-14 20:55:00
4:15 PM,53.1,45.7,76,29.91,7.0,ESE,15.0,21.9,N/A,Rain,Light Rain,110,2013-10-14 21:15:00
4:35 PM,53.2,45.9,76,29.90,10.0,ESE,13.8,21.9,0.01,Rain,Light Rain,110,2013-10-14 21:35:00
4:55 PM,53.8,45.9,75,29.87,10.0,ESE,13.8,21.9,0.01,Rain,Light Rain,110,2013-10-14 21:55:00
5:15 PM,53.8,45.7,74,29.85,7.0,ESE,12.7,20.7,0.01,Rain,Rain,110,2013-10-14 22:15:00
5:35 PM,54.3,45.1,71,29.84,10.0,ESE,13.8,21.9,0.01,Thunderstorm,Overcast,120,2013-10-14 22:35:00
5:55 PM,55.0,44.4,67,29.84,10.0,ESE,16.1,24.2,0.01,Thunderstorm,Thunderstorm,120,2013-10-14 22:55:00
6:15 PM,55.8,44.4,66,29.83,10.0,ESE,15.0,23.0,N/A,Thunderstorm,Thunderstorm,120,2013-10-14 23:15:00
6:35 PM,56.1,44.8,66,29.82,10.0,SE,16.1,24.2,N/A,Thunderstorm,Thunderstorm,130,2013-10-14 23:35:00
6:55 PM,56.5,45.7,67,29.81,10.0,SE,17.3,24.2,N/A,Rain-Thunderstorm,Thunderstorms and Rain,130,2013-10-14 23:55:00
7:15 PM,55.2,47.8,76,29.90,5.0,SSE,4.6,23.0,0.10,Rain-Thunderstorm,Heavy Thunderstorms and Rain,160,2013-10-15 00:15:00
7:35 PM,53.6,48.4,82,29.85,3.0,SE,9.2,17.3,0.26,Rain-Thunderstorm,Heavy Thunderstorms and Rain,130,2013-10-15 00:35:00
7:55 PM,53.8,48.6,82,29.84,7.0,SE,16.1,25.3,0.31,Rain-Thunderstorm,Heavy Thunderstorms and Rain,130,2013-10-15 00:55:00
8:15 PM,53.6,49.3,85,29.84,5.0,SE,13.8,21.9,0.03,Rain,Rain,140,2013-10-15 01:15:00
8:35 PM,53.6,50.0,88,29.83,5.0,SE,5.8,20.7,0.06,Rain,Heavy Rain,140,2013-10-15 01:35:00
8:55 PM,53.6,50.2,88,29.87,4.0,West,6.9,-,0.13,Rain,Heavy Rain,260,2013-10-15 01:55:00
9:15 PM,53.6,50.4,89,29.84,4.0,SE,12.7,17.3,0.04,Rain,Rain,140,2013-10-15 02:15:00
9:35 PM,53.6,50.4,89,29.80,7.0,SE,13.8,20.7,0.05,Rain-Thunderstorm,Light Thunderstorms and Rain,130,2013-10-15 02:35:00
9:55 PM,53.6,50.4,89,29.75,10.0,ESE,20.7,27.6,0.05,Rain,Light Rain,120,2013-10-15 02:55:00
10:15 PM,53.6,50.4,89,29.75,10.0,SE,13.8,26.5,N/A,Rain,Light Rain,130,2013-10-15 03:15:00
10:35 PM,53.8,50.9,90,29.75,10.0,SE,16.1,26.5,N/A,,Mostly Cloudy,140,2013-10-15 03:35:00
10:55 PM,54.5,51.1,88,29.74,10.0,SE,16.1,26.5,N/A,,Mostly Cloudy,140,2013-10-15 03:55:00
11:15 PM,54.9,51.6,89,29.72,10.0,SE,20.7,27.6,N/A,,Mostly Cloudy,140,2013-10-15 04:15:00
11:35 PM,55.4,52.0,88,29.72,10.0,SSE,16.1,26.5,N/A,,Mostly Cloudy,150,2013-10-15 04:35:00
11:55 PM,55.8,52.7,89,29.74,10.0,SSE,13.8,20.7,N/A,,Mostly Cloudy,160,2013-10-15 04:55:00